Location: Palau
(42.3086°N, 3.1507°E)
Time: 15:57:21
(UTC+00:00)

Cosmos 1356 Rocket - Pass Details

Date: 26 May 2020
Orbit: 544 x 598 km, 81.2° (Epoch: 09 July)

Event Time Altitude Azimuth Distance (km) Brightness Sun altitude
Rises 01:19:07 0° 351° (N) 2,773 7.8 -22.9°
Reaches altitude 10° 01:21:18 10° 352° (N) 1,880 6.8 -22.7°
Maximum altitude 01:25:28 82° 81° (E) 589 3.4 -22.4°
Enters shadow 01:25:55 69° 148° (SSE) 621 3.3 -22.3°
